Location: Fredericksburg
(30.2750°N, 98.8720°W)
Time: 17:32:50
(UTC-05:00)

PCSat - Visible Passes

Search period start: 23 May 2017 00:00
Search period end: 02 June 2017 00:00
Orbit: 784 x 796 km, 67.0° (Epoch: 22 May)

Date Brightness Start Highest point End Pass type
(mag) Time Alt. Az. Time Alt. Az. Time Alt. Az.
23 May 12.2 05:49:06 10° N 05:53:35 26° ENE 05:58:01 10° ESE visible
23 May 12.9 22:10:55 10° WNW 22:13:15 13° NW 22:15:36 10° NNW visible
24 May 12.6 05:18:50 10° NNE 05:22:32 18° NE 05:26:14 10° E visible
24 May 12.7 21:38:33 10° W 21:42:10 18° NW 21:45:48 10° NNW visible
25 May 12.9 04:48:59 10° NNE 04:51:27 13° NE 04:53:54 10° E visible
25 May 12.2 21:06:43 10° WSW 21:11:07 25° WNW 21:15:33 10° N visible
26 May 9.8 05:59:03 10° NNW 06:04:29 79° ENE 06:09:53 10° SSE visible
27 May 10.4 05:28:17 10° NNW 05:33:36 55° ENE 05:38:52 10° SE visible
28 May 11.1 04:57:37 10° N 05:02:39 38° ENE 05:07:39 10° SE visible
29 May 11.7 04:27:06 10° N 04:31:41 27° ENE 04:36:13 10° ESE visible
30 May 12.1 03:56:48 10° N 04:00:39 19° NE 04:04:29 10° E visible
30 May 9.8 05:39:04 10° NW 05:44:13 45° WSW 05:49:20 10° S visible
31 May 12.4 03:26:51 10° NNE 03:29:34 14° NE 03:32:17 10° E visible
31 May 9.5 05:08:01 10° NNW 05:13:24 67° WSW 05:18:45 10° SSE visible
01 Jun 9.5 04:37:07 10° NNW 04:42:34 84° ENE 04:47:58 10° SSE visible
